Date String (YYYY-MM-DD hh:mm:ss) UTC,Instrument flags,Ambient pressure (hPa),Sample flow (lpm),Bypass flow (lpm),Sample temperature (°C),Ambient temperature (°C),ASC tube jacket temperature (°C),LED temperature (°C),Box temperature (°C),Sample RH (%),Span deviation,Mass concentration (μg/m³),Mass concentration (μg/m³),Mass concentration (μg/m³)
DateTimeUTC,F1_M11,P_M11,Q1_M11,Q2_M11,T1_M11,T2_M11,T3_M11,T4_M11,T5_M11,U1_M11,ZSPAN_M11,X0_M11,X2_M11,X1_M11
2022-08-04 22:00:00,,0826.8,5.00,0.00,29.4,27.8,00.0,38.0,31.3,22.6,0002.4,0018.26,0009.01,0006.94
2022-08-04 22:01:00,,0826.8,4.99,0.00,29.3,27.3,00.0,38.0,31.2,22.6,0002.3,0018.72,0009.02,0006.94
2022-08-04 22:02:00,,0826.8,5.01,0.00,29.3,27.3,00.0,38.0,31.1,22.9,0002.0,0018.57,0009.05,0006.95
2022-08-04 22:03:00,,0826.8,5.00,0.00,29.3,27.4,00.0,38.0,31.1,22.8,0001.9,0018.57,0009.03,0006.96
2022-08-04 22:04:00,,0826.8,5.00,0.00,29.3,27.6,00.0,38.0,31.1,22.6,0002.0,0018.23,0009.02,0006.98
2022-08-04 22:05:00,,0826.7,4.99,0.00,29.3,27.8,00.0,38.0,31.2,22.2,0001.8,0018.65,0009.04,0006.98
2022-08-04 22:06:00,,0826.8,4.99,0.00,29.3,28.0,00.0,38.0,31.3,22.3,0001.8,0019.52,0009.08,0006.98
2022-08-04 22:07:00,,0826.8,5.00,0.00,29.4,27.9,00.0,38.0,31.3,22.5,0002.0,0020.85,0009.08,0006.97
2022-08-04 22:08:00,,0826.8,5.01,0.00,29.3,27.3,00.0,38.0,31.1,22.3,0002.1,0021.54,0009.15,0006.98
2022-08-04 22:09:00,,0826.8,4.99,0.00,29.3,27.1,00.0,38.0,31.1,23.0,0002.0,0021.89,0009.27,0007.00
2022-08-04 22:10:00,,0826.8,5.01,0.00,29.3,27.2,00.0,38.0,31.1,23.3,0001.8,0022.04,0009.33,0007.01
2022-08-04 22:11:00,,0826.8,4.99,0.00,29.2,27.4,00.0,38.0,31.0,22.4,0001.8,0021.52,0009.36,0007.03
2022-08-04 22:12:00,,0826.8,4.99,0.00,29.3,27.6,00.0,38.0,31.1,22.3,0001.7,0021.45,0009.32,0007.03
2022-08-04 22:13:00,,0826.7,5.01,0.00,29.3,27.9,00.0,38.0,31.2,22.3,0001.5,0022.41,0009.34,0007.05
2022-08-04 22:14:00,,0826.7,5.00,0.00,29.3,28.0,00.0,38.0,31.3,22.4,0001.5,0022.63,0009.38,0007.06
2022-08-04 22:15:00,,0826.7,4.99,0.00,29.3,27.6,00.0,38.0,31.2,22.5,0001.4,0022.49,0009.42,0007.07
2022-08-04 22:16:00,,0826.7,5.01,0.00,29.3,27.1,00.0,38.0,31.1,22.9,0001.6,0022.47,0009.48,0007.08
2022-08-04 22:17:00,,0826.7,4.98,0.00,29.3,27.1,00.0,38.0,31.1,23.4,0001.8,0021.73,0009.53,0007.10
2022-08-04 22:18:00,,0826.7,5.01,0.00,29.2,27.3,00.0,38.0,31.0,23.8,0002.1,0020.54,0009.58,0007.12
2022-08-04 22:19:00,,0826.7,4.99,0.00,29.2,27.5,00.0,38.0,31.1,24.2,0002.0,0020.31,0009.50,0007.14
2022-08-04 22:20:00,,0826.7,5.00,0.00,29.3,27.7,00.0,38.0,31.2,24.0,0002.0,0020.72,0009.37,0007.15
2022-08-04 22:21:00,,0826.7,5.00,0.00,29.3,27.9,00.0,38.0,31.3,23.6,0002.3,0021.41,0009.35,0007.15
2022-08-04 22:22:00,,0826.6,5.01,0.00,29.3,27.8,00.0,38.0,31.2,23.6,0002.2,0022.05,0009.31,0007.15
2022-08-04 22:23:00,,0826.7,5.00,0.00,29.3,27.2,00.0,38.0,31.0,24.2,0002.0,0022.53,0009.33,0007.16
2022-08-04 22:24:00,,0826.7,5.00,0.00,29.2,27.0,00.0,38.0,31.0,24.0,0002.4,0023.13,0009.32,0007.16
2022-08-04 22:25:00,,0826.7,4.99,0.00,29.2,27.1,00.0,37.9,31.0,24.1,0002.4,0023.68,0009.33,0007.17
2022-08-04 22:26:00,,0826.7,5.01,0.00,29.2,27.3,00.0,37.9,31.0,24.2,0002.3,0023.75,0009.38,0007.18
2022-08-04 22:27:00,,0826.7,5.00,0.00,29.2,27.5,00.0,37.9,31.1,23.8,0002.3,0024.45,0009.32,0007.17
2022-08-04 22:28:00,,0826.7,5.01,0.00,29.2,27.8,00.0,38.0,31.2,22.9,0002.1,0025.16,0009.31,0007.17
2022-08-04 22:29:00,,0826.6,5.01,0.00,29.3,27.9,00.0,38.0,31.2,23.0,0002.1,0025.18,0009.30,0007.17
2022-08-04 22:30:00,,0826.6,4.99,0.00,29.3,27.4,00.0,38.0,31.1,23.3,0001.9,0025.16,0009.40,0007.16
2022-08-04 22:31:00,,0826.7,5.00,0.00,29.2,27.0,00.0,37.9,31.0,23.3,0002.0,0025.14,0009.44,0007.16
2022-08-04 22:32:00,,0826.7,4.99,0.00,29.2,27.1,00.0,37.9,31.0,23.5,0002.2,0026.10,0009.54,0007.16
2022-08-04 22:33:00,,0826.6,5.00,0.00,29.2,27.2,00.0,37.9,31.0,23.7,0002.3,0027.78,0009.67,0007.15
2022-08-04 22:34:00,,0826.5,5.00,0.00,29.2,27.4,00.0,37.9,31.0,23.5,0002.3,0027.38,0009.69,0007.13
2022-08-04 22:35:00,,0826.6,5.00,0.00,29.2,27.7,00.0,37.9,31.1,22.8,0001.0,0026.66,0009.63,0007.13
2022-08-04 22:36:00,,0826.6,4.99,0.00,29.3,27.9,00.0,37.9,31.2,22.6,0000.0,0025.96,0009.57,0007.10
2022-08-04 22:37:00,,0826.6,5.00,0.00,29.3,28.0,00.0,38.0,31.3,22.4,0000.0,0026.67,0009.55,0007.10
2022-08-04 22:38:00,,0826.6,5.00,0.00,29.3,27.5,00.0,37.9,31.1,22.4,0000.0,0026.18,0009.58,0007.10
2022-08-04 22:39:00,,0826.6,4.99,0.00,29.2,27.1,00.0,37.9,31.0,22.6,0000.8,0025.83,0009.54,0007.10
2022-08-04 22:40:00,,0826.6,5.00,0.00,29.2,27.1,00.0,37.9,31.1,22.8,0002.7,0025.92,0009.47,0007.07
2022-08-04 22:41:00,,0826.6,4.99,0.00,29.2,27.3,00.0,37.9,31.0,22.9,0001.3,0025.82,0009.34,0007.03
2022-08-04 22:42:00,,0826.5,5.01,0.00,29.2,27.5,00.0,37.9,31.0,23.4,0002.8,0025.12,0009.24,0007.00
2022-08-04 22:43:00,,0826.5,4.99,0.00,29.2,27.7,00.0,37.9,31.1,23.3,0002.7,0023.53,0009.12,0006.96
2022-08-04 22:44:00,,0826.5,5.00,0.00,29.3,28.0,00.0,38.0,31.2,23.3,0002.5,0022.42,0009.01,0006.95
2022-08-04 22:45:00,,0826.5,5.00,0.00,29.3,28.1,00.0,38.0,31.3,23.0,0002.9,0023.02,0009.03,0006.95
2022-08-04 22:46:00,,0826.5,5.01,0.00,29.3,27.6,00.0,38.0,31.2,23.3,0002.8,0022.86,0009.05,0006.92
2022-08-04 22:47:00,,0826.5,5.01,0.00,29.3,27.2,00.0,37.9,31.1,23.8,0002.6,0022.64,0009.07,0006.89
2022-08-04 22:48:00,,0826.5,4.99,0.00,29.3,27.2,00.0,37.9,31.1,23.6,0002.5,0022.24,0009.03,0006.86
2022-08-04 22:49:00,,0826.5,5.01,0.00,29.2,27.4,00.0,37.9,31.1,23.7,0002.6,0021.67,0008.93,0006.82
2022-08-04 22:50:00,,0826.5,5.00,0.00,29.2,27.6,00.0,37.9,31.1,23.3,0002.3,0020.95,0008.93,0006.79
2022-08-04 22:51:00,,0826.5,4.99,0.00,29.3,27.8,00.0,38.0,31.2,23.8,0002.4,0020.80,0008.94,0006.78
2022-08-04 22:52:00,,0826.5,5.01,0.00,29.3,28.0,00.0,38.0,31.3,23.5,0002.2,0020.80,0008.94,0006.77
2022-08-04 22:53:00,,0826.5,5.00,0.00,29.3,27.9,00.0,38.0,31.2,23.4,0002.2,0020.61,0008.97,0006.77
2022-08-04 22:54:00,,0826.5,4.99,0.00,29.3,27.3,00.0,38.0,31.1,23.4,0002.3,0020.62,0008.88,0006.78
2022-08-04 22:55:00,,0826.4,5.01,0.00,29.3,27.2,00.0,38.0,31.1,23.5,0002.4,0020.87,0008.86,0006.76
2022-08-04 22:56:00,,0826.5,4.99,0.00,29.2,27.3,00.0,38.0,31.1,22.4,0002.1,0019.77,0008.80,0006.72
2022-08-04 22:57:00,,0826.5,4.99,0.00,29.2,27.5,00.0,37.9,31.1,22.4,0002.2,0019.75,0008.74,0006.73
2022-08-04 22:58:00,,0826.5,5.01,0.00,29.2,27.7,00.0,38.0,31.1,22.7,0002.5,0019.69,0008.72,0006.74
2022-08-04 22:59:00,,0826.5,5.00,0.00,29.3,27.9,00.0,38.0,31.2,22.6,0002.4,0019.49,0008.71,0006.74
